QPF
0.00 0.00 0.00 0.00 0.00 0.00 0.00 0.00 0.00 0.00 0.00 0.00 0.00 0.00 0.00 0.00 0.00 0.00 0.00 0.00 0.00 0.00 0.00 0.00 0.00 0.00 0.00 0.00 0.00 0.00 0.00 0.00 0.00 0.00 0.00 0.00 0.00 0.00 0.00 0.00 0.00 0.00 0.00 0.00 0.00 0.00 0.00 0.00 0.00 0.00 0.00 0.00 0.00 0.00 0.00 0.00 0.00 0.00 0.00 0.00 0.00 0.00 0.00 0.00 0.00 0.00 0.00 0.00 0.00 0.00 0.00 0.00 0.00 0.00
0.00 0.00 0.00 0.00 0.00 0.00 0.00 0.00 0.00 0.00 0.00 0.00 0.00 0.00 0.00 0.00 0.00 0.00 0.00 0.00 0.00 0.00 0.00 0.00 0.00 0.00 0.00 0.00 0.00 0.00 0.00 0.00 0.00 0.00 0.00 0.00 0.00 0.00 0.00 0.00 0.00 0.00 0.00 0.00 0.00 0.00 0.00 0.00 0.00 0.00 0.00 0.00 0.00 0.00 0.00 0.00 0.00 0.00 0.00 0.00 0.00 0.00 0.00 0.00 0.00 0.00 0.00 0.00 0.00 0.00 0.00 0.00 0.00 0.00
0.00 0.00 0.00 0.00 0.00 0.00 0.00 0.00 0.00 0.00 0.00 0.00 0.00 0.00 0.00 0.00 0.00 0.00 0.00 0.00 0.00 0.00 0.00 0.00 0.00 0.00 0.00 0.00 0.00 0.00 0.00 0.00 0.00 0.00 0.00 0.00 0.00 0.00 0.00 0.00 0.00 0.00 0.00 0.00 0.00 0.00 0.00 0.00 0.00 0.00 0.00 0.00 0.00 0.00 0.00 0.00 0.00 0.00 0.00 0.00 0.00 0.00 0.00 0.00 0.00 0.00 0.00 0.00 0.00 0.00 0.00 0.00 0.00 0.00
0.00 0.00 0.00 0.00 0.00 0.00 0.00 0.00 0.00 0.00 0.00 0.00 0.00 0.00 0.00 0.00 0.00 0.00 0.00 0.00 0.00 0.00 0.00 0.00 0.00 0.00 0.00 0.00 0.00 0.00 0.00 0.00 0.00 0.00 0.00 0.00 0.00 0.00 0.00 0.00 0.00 0.00 0.00 0.00 0.00 0.00 0.00 0.00 0.00 0.00 0.00 0.00 0.00 0.00 0.00 0.00 0.00 0.00 0.00 0.00 0.00 0.00 0.00 0.00 0.00 0.00 0.00 0.00 0.00 0.00 0.00 0.00 0.00 0.00
0.00 0.00 0.00 0.00 0.00 0.00 0.00 0.00 0.00 0.00 0.00 0.00 0.00 0.00 0.00 0.00 0.00 0.00 0.00 0.00 0.00 0.00 0.00 0.00 0.00 0.00 0.00 0.00 0.00 0.00 0.00 0.00 0.00 0.00 0.00 0.00 0.00 0.00 0.00 0.00 0.00 0.00 0.00 0.00 0.00 0.00 0.00 0.00 0.00 0.00 0.00 0.00 0.00 0.00 0.00 0.00 0.00 0.00 0.00 0.00 0.00 0.00 0.00 0.00 0.00 0.00 0.00 0.00 0.00 0.00 0.00 0.00 0.00 0.00
0.00 0.00 0.00 0.00 0.00 0.00 0.00 0.00 0.00 0.00 0.00 0.00 0.00 0.00 0.00 0.00 0.00 0.00 0.00 0.00 0.00 0.00 0.00 0.00 0.00 0.00 0.00 0.00 0.00 0.00 0.00 0.00 0.00 0.00 0.00 0.00 0.00 0.00 0.00 0.00 0.00 0.00 0.00 0.00 0.00 0.00 0.00 0.00 0.00 0.00 0.00 0.00 0.00 0.00 0.00 0.00 0.00 0.00 0.00 0.00 0.00 0.00 0.00 0.00 0.00 0.00 0.00 0.00 0.00 0.00 0.00 0.00 0.00 0.00
0.00 0.00 0.00 0.00 0.00 0.00 0.00 0.00 0.00 0.00 0.00 0.00 0.00 0.00 0.00 0.00 0.00 0.00 0.00 0.00 0.00 0.00 0.00 0.00 0.00 0.00 0.00 0.00 0.00 0.00 0.00 0.00 0.00 0.00 0.00 0.00 0.00 0.00 0.00 0.00 0.00 0.00 0.00 0.00 0.00 0.00 0.00 0.00 0.00 0.00 0.00 0.00 0.00 0.00 0.00 0.00 0.00 0.00 0.00 0.00 0.00 0.00 0.00 0.00 0.00 0.00 0.00 0.00 0.00 0.00 0.00 0.00 0.00 0.00
0.00 0.00 0.00 0.00 0.00 0.00 0.00 0.00 0.00 0.00 0.00 0.00 0.00 0.00 0.00 0.00 0.00 0.00 0.00 0.00 0.00 0.00 0.00 0.00 0.00 0.00 0.00 0.00 0.00 0.00 0.00 0.00 0.00 0.00 0.00 0.00 0.00 0.00 0.00 0.00 0.00 0.00 0.00 0.00 0.00 0.00 0.00 0.00 0.00 0.00 0.00 0.00 0.00 0.00 0.00 0.00 0.00 0.00 0.00 0.00 0.00 0.00 0.00 0.00 0.00 0.00 0.00 0.00 0.00 0.00 0.00 0.00 0.00 0.00
0.00 0.00 0.00 0.00 0.00 0.00 0.00 0.00 0.00 0.00 0.00 0.00 0.00 0.00 0.00 0.00 0.00 0.00 0.00 0.00 0.00 0.00 0.00 0.00 0.00 0.00 0.00 0.00 0.00 0.00 0.00 0.00 0.00 0.00 0.00 0.00 0.00 0.00 0.00 0.00 0.00 0.00 0.00 0.00 0.00 0.00 0.00 0.00 0.00 0.00 0.00 0.00 0.00 0.00 0.00 0.00 0.00 0.00 0.00 0.00 0.00 0.00 0.00 0.00 0.00 0.00 0.00 0.00 0.00 0.00 0.00 0.00 0.00 0.00
0.00 0.00 0.00 0.00 0.00 0.00 0.00 0.00 0.00 0.00 0.00 0.00 0.00 0.00 0.00 0.00 0.00 0.00 0.00 0.00 0.00 0.00 0.00 0.00 0.00 0.00 0.00 0.00 0.00 0.00 0.00 0.00 0.00 0.00 0.00 0.00 0.00 0.00 0.00 0.00 0.00 0.00 0.00 0.00 0.00 0.00 0.00 0.00 0.00 0.00 0.00 0.00 0.00 0.00 0.00 0.00 0.00 0.00 0.00 0.00 0.00 0.00 0.00 0.00 0.00 0.00 0.00 0.00 0.00 0.00 0.00 0.00 0.00 0.00
0.00 0.00 0.00 0.00 0.00 0.00 0.00 0.00 0.00 0.00 0.00 0.00 0.00 0.00 0.00 0.00 0.00 0.00 0.00 0.00 0.00 0.00 0.00 0.00 0.00 0.00 0.00 0.00 0.00 0.00 0.00 0.00 0.00 0.00 0.00 0.00 0.00 0.00 0.00 0.00 0.00 0.00 0.00 0.00 0.00 0.00 0.00 0.00 0.00 0.00 0.00 0.00 0.00 0.00 0.00 0.00 0.00 0.00 0.00 0.00 0.00 0.00 0.00 0.00 0.00 0.00 0.00 0.00 0.00 0.00 0.00 0.00 0.00 0.00
0.00 0.00 0.00 0.00 0.00 0.00 0.00 0.00 0.00 0.00 0.00 0.00 0.00 0.00 0.00 0.00 0.00 0.00 0.00 0.00 0.00 0.00 0.00 0.00 0.00 0.00 0.00 0.00 0.00 0.00 0.00 0.00 0.00 0.00 0.00 0.00 0.00 0.00 0.00 0.00 0.00 0.00 0.00 0.00 0.00 0.00 0.00 0.00 0.00 0.00 0.00 0.00 0.00 0.00 0.00 0.00 0.00 0.00 0.00 0.00 0.00 0.00 0.00 0.00 0.00 0.00 0.00 0.00 0.00 0.00 0.00 0.00 0.00 0.00
0.00 0.00 0.00 0.00 0.00 0.00 0.00 0.00 0.00 0.00 0.00 0.00 0.00 0.00 0.00 0.00 0.00 0.00 0.00 0.00 0.00 0.00 0.00 0.00 0.00 0.00 0.00 0.00 0.00 0.00 0.00 0.00 0.00 0.00 0.00 0.00 0.00 0.00 0.00 0.00 0.00 0.00 0.00 0.00 0.00 0.00 0.00 0.00 0.00 0.00 0.00 0.00 0.00 0.00 0.00 0.00 0.00 0.00 0.00 0.00 0.00 0.00 0.00 0.00 0.00 0.00 0.00 0.00 0.00 0.00 0.00 0.00 0.00 0.00
0.00 0.00 0.00 0.00 0.00 0.00 0.00 0.00 0.00 0.00 0.00 0.00 0.00 0.00 0.00 0.00 0.00 0.00 0.00 0.00 0.00 0.00 0.00 0.00 0.00 0.00 0.00 0.00 0.00 0.00 0.00 0.00 0.00 0.00 0.00 0.00 0.00 0.00 0.00 0.00 0.00 0.00 0.00 0.00 0.00 0.00 0.00 0.00 0.00 0.00 0.00 0.00 0.00 0.00 0.00 0.00 0.00 0.00 0.00 0.00 0.00 0.00 0.00 0.00 0.00 0.00 0.00 0.00 0.00 0.00 0.00 0.00 0.00 0.00
0.00 0.00 0.00 0.00 0.00 0.00 0.00 0.00 0.00 0.00 0.00 0.00 0.00 0.00 0.00 0.00 0.00 0.00 0.00 0.00 0.00 0.00 0.00 0.00 0.00 0.00 0.00 0.00 0.00 0.00 0.00 0.00 0.00 0.00 0.00 0.00 0.00 0.00 0.00 0.00 0.00 0.00 0.00 0.00 0.00 0.00 0.00 0.00 0.00 0.00 0.00 0.00 0.00 0.00 0.00 0.00 0.00 0.00 0.00 0.00 0.00 0.00 0.00 0.00 0.00 0.00 0.00 0.00 0.00 0.00 0.00 0.00 0.00 0.00
0.00 0.00 0.00 0.00 0.00 0.00 0.00 0.01 0.02 0.01 0.00 0.00 0.00 0.00 0.00 0.00 0.00 0.00 0.00 0.00 0.00 0.00 0.00 0.00 0.00 0.00 0.00 0.00 0.00 0.00 0.00 0.00 0.00 0.00 0.00 0.00 0.00 0.00 0.00 0.00 0.00 0.01 0.00 0.00 0.00 0.00 0.00 0.00 0.00 0.00 0.00 0.00 0.00 0.00 0.00 0.00 0.00 0.00 0.00 0.00 0.00 0.00 0.00 0.00 0.00 0.00 0.00 0.00 0.00 0.00 0.00 0.00 0.00 0.00
0.00 0.00 0.00 0.00 0.01 0.00 0.01 0.02 0.02 0.01 0.00 0.00 0.00 0.00 0.00 0.00 0.00 0.00 0.00 0.00 0.00 0.00 0.00 0.00 0.00 0.00 0.00 0.00 0.00 0.00 0.00 0.00 0.00 0.00 0.00 0.01 0.00 0.00 0.00 0.00 0.00 0.00 0.00 0.00 0.00 0.00 0.00 0.00 0.00 0.00 0.00 0.00 0.00 0.00 0.00 0.00 0.00 0.00 0.00 0.00 0.00 0.00 0.00 0.00 0.00 0.00 0.00 0.00 0.00 0.00 0.00 0.00 0.00 0.00
0.00 0.00 0.00 0.00 0.00 0.00 0.01 0.01 0.01 0.00 0.00 0.00 0.00 0.00 0.00 0.00 0.00 0.00 0.00 0.00 0.00 0.00 0.00 0.00 0.00 0.00 0.00 0.00 0.00 0.00 0.00 0.00 0.00 0.00 0.00 0.00 0.00 0.00 0.00 0.00 0.00 0.00 0.00 0.00 0.00 0.00 0.00 0.00 0.00 0.00 0.00 0.00 0.00 0.00 0.00 0.00 0.00 0.00 0.00 0.00 0.00 0.00 0.00 0.00 0.00 0.00 0.00 0.00 0.00 0.00 0.00 0.00 0.00 0.00
0.00 0.00 0.00 0.00 0.00 0.00 0.00 0.00 0.00 0.00 0.00 0.00 0.00 0.00 0.00 0.00 0.00 0.00 0.00 0.00 0.00 0.00 0.00 0.00 0.00 0.00 0.00 0.00 0.00 0.00 0.00 0.00 0.00 0.00 0.00 0.00 0.00 0.00 0.00 0.00 0.00 0.00 0.00 0.00 0.00 0.00 0.00 0.00 0.00 0.00 0.00 0.00 0.00 0.00 0.00 0.00 0.00 0.00 0.00 0.00 0.00 0.00 0.00 0.00 0.00 0.00 0.00 0.00 0.00 0.00 0.00 0.00 0.00 0.00
0.00 0.00 0.00 0.00 0.00 0.00 0.00 0.00 0.00 0.00 0.00 0.00 0.00 0.00 0.00 0.00 0.00 0.00 0.00 0.00 0.00 0.00 0.00 0.00 0.00 0.00 0.00 0.00 0.00 0.00 0.00 0.00 0.00 0.00 0.00 0.00 0.00 0.00 0.00 0.00 0.00 0.00 0.00 0.00 0.00 0.00 0.00 0.00 0.00 0.00 0.00 0.00 0.00 0.00 0.00 0.00 0.00 0.00 0.00 0.00 0.00 0.00 0.00 0.00 0.00 0.00 0.00 0.00 0.00 0.00 0.00 0.00 0.00 0.00
0.00 0.00 0.00 0.00 0.00 0.00 0.00 0.00 0.00 0.00 0.00 0.00 0.00 0.00 0.00 0.00 0.00 0.00 0.00 0.00 0.00 0.00 0.00 0.00 0.00 0.00 0.00 0.00 0.00 0.00 0.00 0.00 0.00 0.00 0.00 0.00 0.00 0.00 0.00 0.00 0.00 0.00 0.00 0.00 0.00 0.00 0.00 0.00 0.00 0.00 0.00 0.00 0.00 0.00 0.00 0.00 0.00 0.00 0.00 0.00 0.00 0.00 0.00 0.00 0.00 0.00 0.00 0.00 0.00 0.00 0.00 0.00 0.00 0.00
0.00 0.00 0.00 0.00 0.00 0.00 0.00 0.00 0.00 0.00 0.00 0.00 0.00 0.00 0.00 0.00 0.00 0.00 0.00 0.00 0.00 0.00 0.00 0.00 0.00 0.00 0.00 0.00 0.00 0.00 0.00 0.00 0.00 0.00 0.00 0.00 0.00 0.00 0.00 0.00 0.00 0.00 0.00 0.00 0.00 0.00 0.00 0.00 0.00 0.00 0.00 0.00 0.00 0.00 0.00 0.00 0.00 0.00 0.00 0.00 0.00 0.00 0.00 0.00 0.00 0.00 0.00 0.00 0.00 0.00 0.00 0.00 0.00 0.00
0.00 0.00 0.00 0.00 0.00 0.00 0.00 0.00 0.00 0.00 0.00 0.00 0.00 0.00 0.00 0.00 0.00 0.00 0.00 0.00 0.00 0.00 0.00 0.00 0.00 0.00 0.00 0.00 0.00 0.00 0.00 0.00 0.00 0.00 0.00 0.00 0.00 0.00 0.00 0.00 0.00 0.00 0.00 0.00 0.00 0.00 0.00 0.00 0.00 0.00 0.00 0.00 0.00 0.00 0.00 0.00 0.00 0.00 0.00 0.00 0.00 0.00 0.00 0.00 0.00 0.00 0.00 0.00 0.00 0.00 0.00 0.00 0.00 0.00
0.00 0.00 0.00 0.00 0.00 0.00 0.00 0.00 0.00 0.00 0.00 0.00 0.00 0.00 0.00 0.00 0.00 0.00 0.00 0.00 0.00 0.00 0.00 0.00 0.00 0.00 0.00 0.00 0.00 0.00 0.00 0.00 0.00 0.00 0.00 0.00 0.00 0.00 0.00 0.00 0.00 0.00 0.00 0.00 0.00 0.00 0.00 0.00 0.00 0.00 0.00 0.00 0.00 0.00 0.00 0.00 0.00 0.00 0.00 0.00 0.00 0.00 0.00 0.00 0.00 0.00 0.00 0.00 0.00 0.00 0.00 0.00 0.00 0.00
0.00 0.00 0.00 0.00 0.00 0.00 0.00 0.00 0.00 0.00 0.00 0.00 0.00 0.00 0.00 0.00 0.00 0.00 0.00 0.00 0.00 0.00 0.00 0.00 0.00 0.00 0.00 0.00 0.00 0.00 0.00 0.00 0.00 0.00 0.00 0.00 0.00 0.00 0.00 0.00 0.00 0.00 0.00 0.00 0.00 0.00 0.00 0.00 0.00 0.00 0.00 0.00 0.00 0.00 0.00 0.00 0.00 0.00 0.00 0.00 0.00 0.00 0.00 0.00 0.00 0.00 0.00 0.00 0.00 0.00 0.00 0.00 0.00 0.00
0.00 0.00 0.00 0.00 0.00 0.00 0.00 0.00 0.00 0.00 0.00 0.00 0.00 0.00 0.00 0.00 0.00 0.00 0.00 0.00 0.00 0.00 0.00 0.00 0.00 0.00 0.00 0.00 0.00 0.00 0.00 0.00 0.00 0.00 0.00 0.00 0.00 0.00 0.00 0.00 0.00 0.00 0.00 0.00 0.00 0.00 0.00 0.00 0.00 0.00 0.00 0.00 0.00 0.00 0.00 0.00 0.00 0.00 0.00 0.00 0.00 0.00 0.00 0.00 0.00 0.00 0.00 0.00 0.00 0.00 0.00 0.00 0.00 0.00
0.00 0.00 0.00 0.00 0.00 0.00 0.00 0.00 0.00 0.00 0.00 0.00 0.00 0.00 0.00 0.00 0.00 0.00 0.00 0.00 0.00 0.00 0.00 0.00 0.00 0.00 0.00 0.00 0.00 0.00 0.00 0.00 0.00 0.00 0.00 0.00 0.00 0.00 0.00 0.00 0.00 0.00 0.00 0.00 0.00 0.00 0.00 0.00 0.00 0.00 0.00 0.00 0.00 0.00 0.00 0.00 0.00 0.00 0.00 0.00 0.00 0.00 0.00 0.00 0.00 0.00 0.00 0.00 0.00 0.00 0.00 0.00 0.00 0.00
0.00 0.00 0.00 0.00 0.00 0.00 0.00 0.00 0.00 0.00 0.00 0.00 0.00 0.00 0.00 0.00 0.00 0.00 0.00 0.00 0.00 0.00 0.00 0.00 0.00 0.00 0.00 0.00 0.00 0.00 0.00 0.00 0.00 0.00 0.00 0.00 0.00 0.00 0.00 0.00 0.00 0.00 0.00 0.00 0.00 0.00 0.00 0.00 0.00 0.00 0.00 0.00 0.00 0.00 0.00 0.00 0.00 0.00 0.00 0.00 0.00 0.00 0.00 0.00 0.00 0.00 0.00 0.00 0.00 0.00 0.00 0.00 0.00 0.00
0.00 0.00 0.00 0.00 0.00 0.00 0.00 0.00 0.00 0.00 0.00 0.00 0.00 0.00 0.00 0.00 0.00 0.00 0.00 0.00 0.00 0.00 0.00 0.00 0.00 0.00 0.00 0.00 0.00 0.00 0.00 0.00 0.00 0.00 0.00 0.00 0.00 0.00 0.00 0.00 0.00 0.00 0.00 0.00 0.00 0.00 0.00 0.00 0.00 0.00 0.00 0.00 0.00 0.00 0.00 0.00 0.00 0.00 0.00 0.00 0.00 0.00 0.00 0.00 0.00 0.00 0.00 0.00 0.00 0.00 0.00 0.00 0.00 0.00
0.01 0.00 0.00 0.01 0.01 0.01 0.00 0.00 0.00 0.00 0.00 0.00 0.00 0.00 0.00 0.00 0.00 0.00 0.00 0.00 0.00 0.00 0.00 0.00 0.00 0.00 0.00 0.00 0.00 0.00 0.00 0.00 0.00 0.00 0.00 0.00 0.00 0.00 0.00 0.00 0.00 0.00 0.00 0.00 0.00 0.00 0.00 0.00 0.00 0.00 0.00 0.00 0.00 0.00 0.00 0.00 0.00 0.00 0.00 0.00 0.00 0.00 0.00 0.00 0.00 0.00 0.00 0.00 0.00 0.00 0.00 0.00 0.00 0.00
0.05 0.02 0.02 0.10 0.01 0.01 0.00 0.00 0.00 0.00 0.00 0.00 0.00 0.00 0.00 0.00 0.00 0.00 0.00 0.00 0.00 0.00 0.00 0.00 0.00 0.00 0.00 0.00 0.00 0.00 0.00 0.00 0.00 0.00 0.00 0.00 0.00 0.00 0.00 0.00 0.00 0.00 0.00 0.00 0.00 0.00 0.00 0.00 0.00 0.00 0.00 0.00 0.00 0.00 0.00 0.00 0.00 0.00 0.00 0.00 0.00 0.00 0.00 0.00 0.00 0.00 0.00 0.00 0.00 0.00 0.00 0.00 0.00 0.00
0.11 0.31 0.40 0.16 0.05 0.03 0.01 0.04 0.00 0.02 0.00 0.00 0.00 0.00 0.00 0.00 0.00 0.00 0.00 0.00 0.00 0.00 0.00 0.00 0.00 0.00 0.00 0.00 0.00 0.00 0.00 0.00 0.00 0.00 0.00 0.00 0.00 0.00 0.00 0.00 0.00 0.00 0.00 0.00 0.00 0.00 0.00 0.00 0.00 0.00 0.00 0.00 0.00 0.00 0.00 0.00 0.00 0.00 0.00 0.00 0.00 0.00 0.00 0.00 0.00 0.00 0.00 0.00 0.00 0.00 0.00 0.00 0.00 0.00
0.06 0.08 0.07 0.08 0.07 0.14 0.03 0.03 0.00 0.00 0.00 0.00 0.00 0.00 0.00 0.00 0.00 0.00 0.00 0.00 0.00 0.00 0.00 0.00 0.00 0.00 0.00 0.00 0.00 0.00 0.00 0.00 0.00 0.00 0.00 0.00 0.00 0.00 0.00 0.00 0.00 0.00 0.00 0.00 0.00 0.00 0.00 0.00 0.00 0.00 0.00 0.00 0.00 0.00 0.00 0.00 0.00 0.00 0.00 0.00 0.00 0.00 0.00 0.00 0.00 0.00 0.00 0.00 0.00 0.00 0.00 0.00 0.00 0.00
0.30 0.20 0.19 0.08 0.03 0.01 0.01 0.04 0.01 0.01 0.00 0.00 0.00 0.00 0.00 0.00 0.00 0.00 0.00 0.00 0.00 0.00 0.00 0.00 0.00 0.00 0.00 0.00 0.00 0.00 0.00 0.00 0.00 0.00 0.00 0.00 0.00 0.00 0.00 0.00 0.00 0.00 0.00 0.00 0.00 0.00 0.00 0.00 0.00 0.00 0.00 0.00 0.00 0.00 0.00 0.00 0.00 0.00 0.00 0.00 0.00 0.00 0.00 0.00 0.00 0.00 0.00 0.00 0.00 0.00 0.00 0.00 0.00 0.00
0.01 0.04 0.01 0.02 0.03 0.07 0.02 0.01 0.02 0.02 0.00 0.00 0.00 0.00 0.00 0.00 0.00 0.00 0.00 0.00 0.00 0.00 0.00 0.00 0.00 0.00 0.00 0.00 0.00 0.00 0.00 0.00 0.00 0.00 0.00 0.00 0.00 0.00 0.00 0.00 0.00 0.00 0.00 0.00 0.00 0.00 0.00 0.00 0.00 0.00 0.00 0.00 0.00 0.00 0.00 0.00 0.00 0.00 0.00 0.00 0.00 0.00 0.00 0.00 0.00 0.00 0.00 0.00 0.00 0.00 0.00 0.00 0.00 0.00
0.02 0.02 0.03 0.03 0.05 0.04 0.02 0.03 0.03 0.03 0.05 0.02 0.00 0.00 0.00 0.00 0.00 0.00 0.00 0.00 0.00 0.00 0.00 0.00 0.00 0.00 0.00 0.00 0.00 0.00 0.00 0.00 0.00 0.00 0.00 0.00 0.00 0.00 0.00 0.00 0.00 0.00 0.00 0.00 0.00 0.00 0.00 0.00 0.00 0.00 0.00 0.00 0.00 0.00 0.00 0.00 0.00 0.00 0.00 0.00 0.00 0.00 0.00 0.00 0.00 0.00 0.00 0.00 0.00 0.00 0.00 0.00 0.00 0.00
0.05 0.18 0.03 0.03 0.03 0.02 0.01 0.03 0.01 0.00 0.00 0.00 0.00 0.00 0.00 0.00 0.00 0.00 0.00 0.00 0.00 0.00 0.00 0.00 0.00 0.00 0.00 0.00 0.00 0.00 0.00 0.00 0.00 0.00 0.00 0.00 0.00 0.00 0.00 0.00 0.00 0.00 0.00 0.00 0.00 0.00 0.00 0.00 0.00 0.00 0.00 0.00 0.00 0.00 0.00 0.00 0.00 0.00 0.00 0.00 0.00 0.00 0.00 0.00 0.00 0.00 0.00 0.00 0.00 0.00 0.00 0.00 0.00 0.00
0.22 0.13 0.05 0.04 0.03 0.03 0.01 0.01 0.00 0.00 0.00 0.00 0.00 0.00 0.00 0.00 0.00 0.00 0.00 0.00 0.00 0.00 0.00 0.00 0.00 0.00 0.00 0.00 0.00 0.00 0.00 0.00 0.00 0.00 0.00 0.00 0.00 0.00 0.00 0.00 0.00 0.00 0.00 0.00 0.00 0.00 0.00 0.00 0.00 0.00 0.00 0.00 0.00 0.00 0.00 0.00 0.00 0.00 0.00 0.00 0.00 0.00 0.00 0.00 0.00 0.00 0.00 0.00 0.00 0.00 0.00 0.00 0.00 0.00
0.09 0.09 0.04 0.04 0.02 0.02 0.03 0.02 0.00 0.00 0.00 0.00 0.00 0.00 0.00 0.00 0.00 0.00 0.00 0.00 0.00 0.00 0.00 0.00 0.00 0.00 0.00 0.00 0.00 0.00 0.00 0.00 0.00 0.00 0.00 0.00 0.00 0.00 0.00 0.00 0.00 0.00 0.00 0.00 0.00 0.00 0.00 0.00 0.00 0.00 0.00 0.00 0.00 0.00 0.00 0.00 0.00 0.00 0.00 0.00 0.00 0.00 0.00 0.00 0.00 0.00 0.00 0.00 0.00 0.00 0.00 0.00 0.00 0.00
0.10 0.07 0.08 0.06 0.03 0.03 0.01 0.02 0.00 0.00 0.00 0.00 0.00 0.00 0.00 0.00 0.00 0.00 0.00 0.00 0.00 0.00 0.00 0.00 0.00 0.00 0.00 0.00 0.00 0.00 0.00 0.00 0.00 0.00 0.00 0.00 0.00 0.00 0.00 0.00 0.00 0.00 0.00 0.00 0.00 0.00 0.00 0.00 0.00 0.00 0.00 0.00 0.00 0.00 0.00 0.00 0.00 0.00 0.00 0.00 0.00 0.00 0.00 0.00 0.00 0.00 0.00 0.00 0.00 0.00 0.00 0.00 0.00 0.00
0.12 0.10 0.10 0.15 0.09 0.02 0.07 0.00 0.00 0.00 0.00 0.00 0.00 0.00 0.00 0.00 0.00 0.00 0.00 0.00 0.00 0.00 0.00 0.00 0.00 0.00 0.00 0.00 0.00 0.00 0.00 0.00 0.00 0.00 0.00 0.00 0.00 0.00 0.00 0.00 0.00 0.00 0.00 0.00 0.00 0.00 0.00 0.00 0.00 0.00 0.00 0.00 0.00 0.00 0.00 0.00 0.00 0.00 0.00 0.00 0.00 0.00 0.00 0.00 0.00 0.00 0.00 0.00 0.00 0.00 0.00 0.00 0.00 0.00
0.04 0.05 0.05 0.06 0.02 0.03 0.01 0.00 0.00 0.00 0.00 0.00 0.00 0.00 0.00 0.00 0.00 0.00 0.00 0.00 0.00 0.00 0.00 0.00 0.00 0.00 0.00 0.00 0.00 0.00 0.00 0.00 0.00 0.00 0.00 0.00 0.00 0.00 0.00 0.00 0.00 0.00 0.00 0.00 0.00 0.00 0.00 0.00 0.00 0.00 0.00 0.00 0.00 0.00 0.00 0.00 0.00 0.00 0.00 0.00 0.00 0.00 0.00 0.00 0.00 0.00 0.00 0.00 0.00 0.00 0.00 0.00 0.00 0.00
0.06 0.04 0.02 0.02 0.01 0.00 0.00 0.00 0.00 0.00 0.00 0.00 0.00 0.00 0.00 0.00 0.00 0.00 0.00 0.00 0.00 0.00 0.00 0.00 0.00 0.00 0.00 0.00 0.00 0.00 0.00 0.00 0.00 0.00 0.00 0.00 0.00 0.00 0.00 0.00 0.00 0.00 0.00 0.00 0.00 0.00 0.00 0.00 0.00 0.00 0.00 0.00 0.00 0.00 0.00 0.00 0.00 0.00 0.00 0.00 0.00 0.00 0.00 0.00 0.00 0.00 0.00 0.00 0.00 0.00 0.00 0.00 0.01 0.01
0.05 0.04 0.02 0.02 0.01 0.00 0.00 0.00 0.00 0.00 0.00 0.00 0.00 0.00 0.00 0.00 0.00 0.00 0.00 0.00 0.00 0.00 0.00 0.00 0.00 0.00 0.00 0.00 0.00 0.00 0.00 0.00 0.00 0.00 0.00 0.00 0.00 0.00 0.00 0.00 0.00 0.00 0.00 0.00 0.00 0.00 0.00 0.00 0.00 0.00 0.00 0.00 0.00 0.00 0.00 0.00 0.00 0.00 0.00 0.00 0.00 0.00 0.00 0.00 0.00 0.00 0.00 0.00 0.00 0.00 0.00 0.00 0.00 0.00
0.07 0.04 0.02 0.03 0.01 0.00 0.00 0.00 0.00 0.00 0.00 0.00 0.00 0.00 0.00 0.00 0.00 0.00 0.00 0.00 0.00 0.00 0.00 0.00 0.00 0.00 0.00 0.00 0.00 0.00 0.00 0.00 0.00 0.00 0.00 0.00 0.00 0.00 0.00 0.00 0.00 0.00 0.00 0.00 0.00 0.00 0.00 0.00 0.00 0.00 0.00 0.00 0.00 0.00 0.00 0.00 0.00 0.00 0.00 0.00 0.00 0.00 0.00 0.00 0.00 0.00 0.00 0.00 0.00 0.00 0.00 0.00 0.00 0.00
MSLP
1019.12 1019.36 1019.65 1019.92 1020.01 1020.01 1020.01 1020.16 1020.24 1020.41 1020.57 1020.68 1020.80 1020.97 1021.53 1021.97 1022.89 1023.33 1023.33 1022.92 1022.57 1021.77 1021.24 1021.68 1021.48 1021.09 1021.16 1021.24 1021.04 1021.16 1021.12 1021.16 1021.16 1021.01 1021.04 1021.16 1021.16 1021.33 1021.45 1021.48 1021.45 1021.45 1021.41 1021.36 1021.36 1021.33 1021.28 1021.24 1021.21 1021.16 1021.12 1021.09 1021.04 1021.01 1020.97 1020.97 1020.97 1021.01 1021.01 1020.97 1020.92 1020.92 1020.92 1020.92 1020.92 1020.97 1020.97 1020.97 1020.97 1020.92 1020.89 1020.89 1020.84 1020.80
1019.04 1019.24 1019.45 1019.68 1019.89 1019.80 1019.97 1020.09 1020.04 1020.28 1020.53 1020.65 1020.77 1020.84 1020.92 1021.21 1022.16 1022.53 1023.24 1022.92 1022.04 1022.01 1021.48 1021.21 1021.48 1021.36 1021.36 1021.21 1021.28 1021.16 1021.24 1021.33 1021.24 1021.12 1021.12 1021.04 1021.04 1021.24 1021.33 1021.33 1021.33 1021.33 1021.33 1021.33 1021.33 1021.28 1021.28 1021.24 1021.21 1021.12 1021.04 1020.97 1020.89 1020.84 1020.80 1020.77 1020.80 1020.80 1020.77 1020.77 1020.72 1020.68 1020.68 1020.72 1020.77 1020.77 1020.77 1020.77 1020.72 1020.72 1020.68 1020.68 1020.65 1020.65
1018.92 1019.28 1019.57 1019.60 1019.77 1019.68 1019.84 1019.89 1019.92 1020.12 1020.33 1020.48 1020.53 1020.65 1020.80 1021.09 1021.33 1021.89 1022.33 1023.12 1022.01 1021.48 1022.01 1021.45 1021.01 1021.24 1021.36 1021.12 1021.21 1021.21 1021.16 1021.24 1021.16 1021.04 1021.04 1021.01 1021.16 1021.28 1021.21 1021.28 1021.33 1021.36 1021.36 1021.36 1021.36 1021.36 1021.36 1021.33 1021.24 1021.16 1021.04 1020.97 1020.84 1020.80 1020.72 1020.68 1020.65 1020.60 1020.57 1020.57 1020.57 1020.53 1020.53 1020.53 1020.57 1020.57 1020.57 1020.57 1020.53 1020.53 1020.48 1020.45 1020.41 1020.36
1018.72 1019.09 1019.45 1019.48 1019.60 1019.57 1019.68 1019.80 1019.89 1020.09 1020.16 1020.24 1020.45 1020.53 1020.72 1020.89 1021.01 1021.28 1021.89 1022.53 1022.45 1021.53 1021.48 1021.45 1021.41 1021.16 1021.21 1021.21 1021.36 1021.21 1021.21 1021.16 1021.21 1020.97 1021.01 1021.04 1021.28 1021.21 1020.97 1021.21 1021.33 1021.36 1021.36 1021.36 1021.33 1021.28 1021.24 1021.21 1021.12 1021.04 1020.92 1020.84 1020.77 1020.72 1020.65 1020.60 1020.57 1020.53 1020.48 1020.45 1020.45 1020.45 1020.45 1020.41 1020.41 1020.36 1020.36 1020.36 1020.33 1020.33 1020.28 1020.21 1020.16 1020.12
1018.53 1018.84 1019.16 1019.21 1019.21 1019.21 1019.60 1019.68 1019.72 1019.84 1020.04 1020.21 1020.28 1020.36 1020.53 1020.80 1020.89 1021.16 1021.68 1022.16 1022.12 1021.48 1021.09 1021.24 1021.21 1021.09 1021.04 1021.28 1021.09 1021.28 1021.16 1021.16 1021.09 1021.09 1021.01 1021.09 1021.09 1021.01 1020.97 1020.84 1021.04 1021.21 1021.21 1021.16 1021.16 1021.12 1021.04 1020.97 1020.89 1020.80 1020.72 1020.68 1020.60 1020.57 1020.57 1020.53 1020.48 1020.45 1020.41 1020.36 1020.33 1020.28 1020.28 1020.24 1020.21 1020.16 1020.12 1020.12 1020.09 1020.09 1020.04 1020.01 1019.92 1019.89
1018.24 1018.53 1018.89 1018.97 1019.01 1019.04 1019.36 1019.45 1019.65 1019.68 1019.84 1020.01 1020.16 1020.33 1020.41 1020.57 1020.72 1020.68 1021.24 1021.60 1021.92 1022.01 1021.28 1021.24 1020.89 1021.04 1020.97 1021.41 1021.01 1021.21 1021.21 1021.16 1021.04 1021.16 1021.12 1021.04 1021.01 1021.04 1020.89 1020.77 1020.68 1020.97 1020.97 1020.97 1020.92 1020.89 1020.84 1020.80 1020.77 1020.68 1020.60 1020.57 1020.53 1020.45 1020.41 1020.36 1020.28 1020.28 1020.28 1020.24 1020.21 1020.12 1020.09 1020.04 1020.01 1019.97 1019.92 1019.89 1019.84 1019.84 1019.80 1019.77 1019.72 1019.65
1017.89 1018.24 1018.48 1018.65 1018.68 1018.84 1019.21 1019.33 1019.36 1019.36 1019.60 1019.65 1019.89 1020.04 1020.04 1020.28 1020.33 1020.48 1020.68 1021.16 1021.68 1021.72 1021.48 1020.97 1021.09 1021.01 1020.97 1021.04 1021.12 1020.97 1020.92 1020.92 1020.92 1021.16 1021.12 1021.04 1020.97 1020.84 1020.80 1020.65 1020.48 1020.68 1020.77 1020.77 1020.77 1020.72 1020.72 1020.65 1020.60 1020.53 1020.48 1020.45 1020.41 1020.36 1020.28 1020.24 1020.16 1020.12 1020.09 1020.04 1020.01 1019.97 1019.92 1019.89 1019.84 1019.80 1019.77 1019.72 1019.65 1019.57 1019.53 1019.48 1019.45 1019.41
1017.48 1017.77 1018.12 1018.21 1018.28 1018.53 1018.97 1019.09 1019.21 1019.21 1019.33 1019.53 1019.65 1019.80 1019.89 1020.01 1020.16 1020.21 1020.41 1020.65 1021.04 1021.24 1021.60 1021.12 1021.12 1020.80 1020.97 1020.92 1020.77 1020.77 1020.80 1020.84 1020.92 1020.92 1020.89 1020.84 1020.89 1020.68 1020.57 1020.53 1020.45 1020.48 1020.65 1020.60 1020.60 1020.57 1020.53 1020.48 1020.41 1020.36 1020.33 1020.24 1020.21 1020.16 1020.12 1020.04 1020.04 1020.01 1019.92 1019.84 1019.77 1019.72 1019.68 1019.68 1019.65 1019.60 1019.57 1019.57 1019.53 1019.45 1019.33 1019.24 1019.16 1019.12
1016.92 1017.21 1017.48 1017.65 1017.89 1018.16 1018.60 1018.72 1018.89 1018.92 1019.16 1019.16 1019.28 1019.48 1019.57 1019.80 1019.84 1019.92 1020.16 1020.45 1020.65 1021.04 1021.33 1021.09 1020.72 1020.65 1020.77 1020.65 1020.68 1020.68 1020.97 1020.89 1020.80 1020.77 1020.84 1020.77 1020.72 1020.60 1020.33 1020.16 1020.28 1020.41 1020.45 1020.41 1020.36 1020.33 1020.24 1020.21 1020.16 1020.16 1020.16 1020.12 1020.12 1020.09 1020.04 1019.97 1019.92 1019.89 1019.80 1019.77 1019.68 1019.60 1019.48 1019.45 1019.36 1019.36 1019.33 1019.28 1019.28 1019.28 1019.21 1019.12 1019.04 1018.97
1016.33 1016.60 1016.84 1017.09 1017.33 1017.68 1018.04 1018.21 1018.33 1018.48 1018.72 1018.80 1019.01 1019.16 1019.28 1019.45 1019.57 1019.84 1020.04 1020.21 1020.48 1020.72 1020.84 1020.92 1020.89 1020.72 1020.89 1020.89 1020.80 1020.65 1020.80 1021.04 1021.04 1020.89 1020.65 1020.53 1020.45 1020.48 1020.45 1020.21 1020.12 1020.09 1020.04 1019.97 1019.92 1019.92 1019.92 1019.89 1020.01 1020.01 1020.01 1020.04 1020.04 1019.97 1019.84 1019.77 1019.72 1019.68 1019.60 1019.57 1019.53 1019.45 1019.36 1019.33 1019.24 1019.21 1019.16 1019.09 1019.04 1019.01 1019.01 1018.97 1018.89 1018.84
1015.80 1016.01 1016.21 1016.45 1016.68 1017.04 1017.28 1017.53 1017.72 1017.92 1018.21 1018.36 1018.57 1018.68 1018.89 1019.01 1019.33 1019.65 1019.80 1020.04 1020.28 1020.45 1020.65 1020.60 1020.53 1020.60 1020.41 1020.65 1020.92 1020.68 1020.65 1020.77 1020.84 1021.01 1020.89 1020.72 1020.24 1020.28 1020.41 1020.53 1020.16 1019.89 1019.89 1019.77 1019.77 1019.72 1019.72 1019.77 1019.72 1019.77 1019.89 1019.89 1019.84 1019.72 1019.57 1019.41 1019.41 1019.41 1019.41 1019.36 1019.36 1019.33 1019.24 1019.21 1019.12 1019.09 1019.01 1018.97 1018.89 1018.84 1018.80 1018.80 1018.80 1018.77
1015.33 1015.48 1015.60 1015.68 1015.97 1016.28 1016.48 1016.68 1016.80 1017.09 1017.65 1017.84 1018.21 1018.24 1018.45 1018.68 1019.04 1019.28 1019.45 1019.72 1019.92 1020.16 1020.33 1020.45 1020.45 1020.33 1020.53 1020.57 1020.45 1020.48 1020.68 1020.89 1020.77 1020.60 1020.68 1020.97 1020.68 1020.45 1020.24 1020.24 1020.36 1020.04 1019.97 1019.92 1019.45 1019.41 1019.53 1019.53 1019.60 1019.68 1019.68 1019.60 1019.57 1019.48 1019.33 1019.16 1019.12 1019.12 1019.12 1019.16 1019.16 1019.16 1019.16 1019.12 1019.04 1018.97 1018.89 1018.80 1018.72 1018.65 1018.60 1018.60 1018.53 1018.53
1015.01 1015.04 1015.09 1015.12 1015.28 1015.57 1015.77 1015.97 1016.12 1016.36 1016.72 1017.33 1017.92 1018.01 1018.12 1018.48 1018.77 1018.97 1019.09 1019.28 1019.57 1019.80 1020.01 1020.16 1020.09 1020.28 1020.48 1020.41 1020.53 1020.65 1020.72 1020.77 1020.60 1020.33 1020.48 1020.77 1020.57 1020.41 1020.33 1020.09 1019.92 1020.04 1020.16 1019.84 1019.68 1019.60 1019.48 1019.53 1019.48 1019.36 1019.28 1019.09 1019.16 1019.01 1019.01 1018.84 1018.84 1018.92 1018.97 1018.97 1018.92 1018.97 1019.01 1019.01 1018.97 1018.89 1018.80 1018.72 1018.60 1018.53 1018.41 1018.33 1018.28 1018.24
1014.68 1014.65 1014.60 1014.65 1014.97 1015.24 1015.48 1015.77 1016.04 1016.41 1016.77 1016.97 1017.12 1017.45 1017.84 1018.12 1018.36 1018.60 1018.80 1019.01 1019.16 1019.41 1019.77 1019.84 1019.89 1020.12 1020.12 1020.01 1020.09 1020.21 1020.04 1019.92 1020.04 1020.36 1020.48 1020.68 1020.41 1020.36 1020.41 1020.12 1019.84 1019.77 1019.97 1020.01 1020.09 1019.84 1019.45 1019.48 1019.48 1019.36 1019.24 1018.89 1018.84 1018.65 1018.48 1018.36 1018.57 1018.77 1018.84 1018.84 1018.84 1018.84 1018.80 1018.72 1018.68 1018.65 1018.60 1018.57 1018.48 1018.41 1018.33 1018.21 1018.12 1018.01
1014.36 1014.28 1014.28 1014.45 1014.77 1015.12 1015.45 1015.60 1015.84 1016.16 1016.53 1016.80 1016.92 1017.04 1017.16 1017.33 1017.68 1018.16 1018.48 1018.65 1018.77 1019.12 1019.33 1019.24 1019.48 1019.65 1019.77 1019.60 1019.53 1019.72 1019.57 1019.65 1019.92 1020.09 1020.21 1020.33 1020.36 1020.53 1020.72 1020.80 1019.97 1019.48 1019.89 1020.04 1020.12 1019.92 1019.41 1019.45 1019.65 1019.33 1019.12 1018.84 1018.65 1018.45 1018.33 1018.60 1018.77 1018.80 1018.80 1018.80 1018.77 1018.68 1018.60 1018.48 1018.45 1018.36 1018.36 1018.33 1018.28 1018.24 1018.16 1018.09 1017.97 1017.89
1013.84 1013.97 1014.04 1014.24 1014.36 1014.60 1014.80 1015.04 1015.53 1015.97 1016.28 1016.48 1016.68 1016.84 1016.97 1017.12 1017.21 1017.24 1017.60 1018.12 1018.48 1018.57 1018.89 1019.09 1019.12 1019.21 1019.36 1019.33 1019.36 1019.36 1019.41 1019.60 1019.68 1019.72 1019.89 1020.16 1020.41 1020.48 1020.53 1020.41 1020.48 1019.68 1019.77 1020.12 1020.21 1019.97 1019.28 1019.21 1019.33 1019.24 1018.97 1018.72 1018.45 1018.33 1018.48 1018.65 1018.68 1018.68 1018.65 1018.60 1018.60 1018.53 1018.45 1018.33 1018.21 1018.16 1018.09 1018.04 1018.01 1017.97 1017.92 1017.89 1017.80 1017.72
1013.36 1013.48 1013.77 1014.04 1014.09 1014.12 1014.57 1014.92 1015.04 1015.36 1015.80 1016.12 1016.36 1016.60 1016.80 1016.92 1017.01 1017.12 1017.24 1017.21 1017.36 1017.57 1018.21 1018.53 1018.68 1018.84 1018.84 1019.12 1019.04 1018.92 1019.21 1019.24 1019.68 1019.60 1019.80 1019.89 1020.01 1020.09 1020.28 1020.12 1019.89 1019.60 1019.60 1020.01 1020.09 1019.97 1019.36 1019.16 1019.16 1019.04 1018.72 1018.48 1018.33 1018.33 1018.28 1018.48 1018.53 1018.45 1018.41 1018.36 1018.28 1018.24 1018.16 1018.12 1018.01 1017.92 1017.84 1017.77 1017.72 1017.68 1017.65 1017.60 1017.57 1017.48
1012.80 1012.97 1013.28 1013.60 1013.84 1013.89 1014.28 1014.57 1014.77 1014.97 1015.21 1015.60 1016.16 1016.53 1016.68 1016.68 1016.77 1016.97 1017.12 1017.33 1017.48 1017.45 1017.60 1017.92 1018.41 1018.24 1018.33 1018.77 1018.65 1018.72 1018.84 1019.24 1019.45 1019.48 1019.65 1019.60 1019.84 1019.97 1019.97 1019.77 1019.84 1019.57 1019.41 1019.84 1019.97 1020.01 1019.36 1018.92 1019.04 1019.04 1018.60 1018.33 1018.36 1018.28 1018.28 1018.36 1018.28 1018.21 1018.16 1018.12 1018.04 1017.92 1017.84 1017.80 1017.77 1017.68 1017.60 1017.53 1017.45 1017.41 1017.33 1017.28 1017.21 1017.16
1012.12 1012.33 1012.57 1012.80 1013.12 1013.53 1013.89 1014.01 1014.24 1014.57 1014.89 1015.21 1015.53 1015.89 1016.16 1016.16 1016.12 1016.28 1016.60 1016.89 1017.04 1017.24 1017.24 1017.45 1017.68 1017.80 1017.92 1018.09 1018.28 1018.45 1018.65 1018.77 1018.89 1019.04 1019.33 1019.45 1019.60 1019.68 1019.60 1019.60 1019.45 1019.33 1019.12 1019.48 1019.80 1020.21 1019.36 1018.89 1019.09 1018.84 1018.57 1018.33 1018.33 1018.16 1018.16 1018.09 1018.04 1018.01 1017.97 1017.89 1017.80 1017.72 1017.60 1017.53 1017.48 1017.45 1017.41 1017.33 1017.21 1017.12 1017.04 1016.97 1016.92 1016.89
1011.57 1011.72 1012.01 1012.36 1012.72 1013.09 1013.36 1013.57 1013.97 1014.16 1014.41 1014.84 1015.16 1015.53 1015.65 1015.77 1015.72 1015.77 1015.84 1016.09 1016.41 1016.57 1016.80 1017.01 1017.12 1017.24 1017.48 1017.80 1017.97 1018.09 1018.24 1018.53 1018.72 1018.97 1019.16 1019.41 1019.72 1019.84 1019.89 1019.92 1019.24 1019.28 1018.84 1019.24 1019.60 1019.77 1019.41 1018.92 1019.09 1018.89 1018.45 1018.36 1018.36 1018.16 1017.97 1017.77 1017.80 1017.80 1017.77 1017.68 1017.57 1017.48 1017.36 1017.28 1017.24 1017.21 1017.16 1017.09 1016.97 1016.89 1016.77 1016.68 1016.60 1016.53
1011.04 1011.24 1011.45 1011.80 1012.24 1012.57 1012.80 1013.12 1013.60 1013.97 1014.24 1014.53 1014.84 1015.09 1015.33 1015.45 1015.53 1015.68 1015.92 1016.33 1016.60 1016.80 1016.97 1017.12 1017.28 1017.48 1017.77 1018.01 1018.21 1018.41 1018.57 1018.57 1018.60 1018.97 1019.41 1019.60 1019.24 1019.72 1020.01 1019.68 1019.53 1019.28 1018.84 1018.77 1019.04 1019.45 1019.57 1019.04 1019.01 1018.89 1018.57 1018.48 1018.41 1018.12 1017.80 1017.48 1017.45 1017.57 1017.53 1017.41 1017.24 1017.16 1017.09 1017.04 1017.01 1016.97 1016.84 1016.77 1016.68 1016.60 1016.53 1016.45 1016.33 1016.24
1010.60 1010.72 1011.09 1011.41 1011.72 1012.01 1012.24 1012.68 1013.24 1013.68 1014.04 1014.28 1014.48 1014.72 1015.04 1015.33 1015.60 1015.68 1015.77 1016.24 1016.80 1017.16 1017.28 1017.41 1017.57 1017.77 1017.92 1018.16 1018.41 1018.57 1018.68 1018.80 1018.89 1019.04 1019.53 1019.01 1019.01 1019.53 1019.57 1019.80 1019.48 1019.09 1018.97 1018.84 1018.89 1019.53 1019.36 1018.97 1018.89 1018.97 1018.53 1018.33 1017.97 1017.72 1017.53 1017.45 1017.33 1017.24 1017.12 1017.01 1016.97 1016.89 1016.77 1016.72 1016.72 1016.65 1016.53 1016.45 1016.36 1016.33 1016.28 1016.21 1016.21 1015.89
1010.21 1010.48 1010.84 1011.16 1011.28 1011.48 1011.77 1012.36 1012.84 1013.28 1013.57 1013.77 1013.97 1014.28 1014.60 1015.09 1015.36 1015.36 1015.57 1016.01 1016.57 1017.04 1017.24 1017.48 1017.65 1017.97 1018.12 1018.21 1018.21 1018.41 1018.68 1018.84 1018.97 1018.84 1018.89 1018.77 1019.16 1019.41 1019.28 1019.24 1019.41 1019.57 1019.01 1018.68 1018.97 1019.60 1019.21 1019.16 1018.80 1018.92 1018.80 1018.60 1017.89 1017.48 1017.48 1017.41 1017.21 1017.09 1016.89 1016.68 1016.53 1016.53 1016.48 1016.45 1016.36 1016.24 1016.16 1016.09 1016.04 1016.04 1016.01 1015.97 1016.01 1015.60
1010.04 1010.21 1010.45 1010.77 1011.09 1011.36 1011.65 1012.04 1012.45 1012.80 1013.09 1013.21 1013.45 1013.72 1014.21 1014.68 1015.09 1014.80 1015.24 1015.60 1015.92 1016.45 1016.68 1017.01 1017.33 1017.53 1017.68 1017.80 1017.97 1018.16 1018.53 1018.72 1018.77 1018.68 1018.68 1018.68 1018.84 1019.21 1019.28 1019.16 1019.24 1019.45 1019.21 1018.60 1018.80 1019.45 1019.12 1019.01 1018.92 1018.65 1018.77 1018.84 1018.41 1017.60 1017.28 1017.16 1017.09 1016.97 1016.80 1016.60 1016.45 1016.21 1016.16 1016.04 1015.89 1015.77 1015.72 1015.65 1015.65 1015.65 1015.65 1015.57 1015.68 1015.36
1009.57 1009.97 1010.04 1010.12 1010.60 1011.04 1011.33 1011.68 1012.01 1012.36 1012.65 1012.77 1012.97 1013.21 1013.60 1013.84 1014.01 1014.33 1015.01 1015.60 1015.80 1016.12 1016.53 1016.89 1017.16 1017.41 1017.57 1017.68 1017.72 1017.84 1018.01 1018.16 1018.28 1018.45 1018.48 1018.48 1018.60 1018.84 1019.01 1019.04 1019.01 1018.92 1018.68 1018.53 1018.89 1019.21 1019.33 1018.97 1018.92 1018.65 1018.53 1018.48 1018.04 1017.68 1017.24 1017.24 1017.01 1016.89 1016.65 1016.48 1016.33 1016.04 1015.92 1015.72 1015.53 1015.28 1015.16 1015.16 1015.12 1015.16 1015.16 1015.21 1015.24 1015.21
1008.97 1009.21 1009.45 1009.72 1010.04 1010.60 1011.04 1011.33 1011.60 1011.84 1012.12 1012.48 1012.65 1012.84 1013.04 1013.48 1013.97 1014.33 1014.57 1015.16 1015.65 1015.97 1016.36 1016.65 1016.97 1017.16 1017.33 1017.45 1017.45 1017.53 1017.68 1017.77 1017.92 1018.09 1018.21 1018.33 1018.33 1018.41 1018.53 1018.84 1019.12 1019.16 1018.92 1018.65 1018.92 1019.01 1019.12 1019.04 1018.77 1018.68 1018.48 1018.41 1017.97 1017.72 1017.53 1017.21 1016.89 1016.57 1016.48 1016.36 1016.21 1016.01 1015.80 1015.57 1015.33 1015.12 1014.97 1014.72 1014.53 1014.53 1014.60 1014.72 1014.72 1014.77
1008.24 1008.57 1008.92 1009.24 1009.80 1010.48 1010.92 1011.24 1011.36 1011.48 1011.72 1012.24 1012.33 1012.60 1013.16 1013.48 1013.80 1014.12 1014.45 1014.97 1015.45 1015.80 1016.12 1016.45 1016.77 1016.92 1016.97 1017.12 1017.33 1017.48 1017.57 1017.53 1017.72 1017.92 1018.01 1018.16 1018.36 1018.48 1018.48 1018.57 1018.65 1018.72 1018.60 1018.53 1018.57 1018.72 1018.97 1018.89 1018.60 1018.65 1018.53 1018.33 1018.24 1017.84 1017.65 1017.28 1016.77 1016.53 1016.45 1016.24 1016.04 1015.80 1015.53 1015.28 1015.16 1015.01 1014.80 1014.60 1014.41 1014.36 1014.36 1014.21 1014.12 1014.09
1007.57 1008.16 1008.53 1008.89 1009.77 1010.53 1011.01 1011.36 1011.45 1011.41 1011.68 1011.77 1012.09 1012.60 1013.04 1013.36 1013.68 1013.89 1014.41 1014.97 1015.33 1015.65 1016.01 1016.36 1016.53 1016.65 1016.65 1016.72 1017.04 1017.21 1017.28 1017.33 1017.72 1017.89 1018.04 1018.21 1018.24 1018.36 1018.41 1018.48 1018.53 1018.48 1018.45 1018.36 1018.33 1018.48 1018.65 1018.68 1018.45 1018.28 1018.28 1018.28 1018.24 1018.04 1017.77 1017.12 1016.84 1016.65 1016.53 1016.09 1015.89 1015.60 1015.36 1015.24 1015.09 1014.89 1014.65 1014.45 1014.33 1014.09 1013.92 1013.65 1013.41 1013.36
1006.77 1007.24 1007.77 1008.53 1009.36 1010.12 1010.89 1011.45 1011.84 1011.84 1011.53 1011.48 1011.92 1012.41 1012.92 1013.24 1013.36 1013.68 1014.12 1014.65 1015.09 1015.57 1015.80 1015.92 1016.01 1016.16 1016.36 1016.45 1016.60 1016.77 1017.01 1017.33 1017.68 1018.01 1018.09 1018.09 1018.16 1018.16 1018.33 1018.36 1018.36 1018.33 1018.28 1018.12 1018.16 1018.24 1018.36 1018.41 1018.28 1018.12 1018.09 1018.01 1017.97 1017.68 1017.60 1017.33 1017.01 1016.65 1016.41 1016.24 1015.97 1015.53 1015.33 1015.09 1014.89 1014.72 1014.57 1014.41 1014.21 1014.01 1013.77 1013.53 1013.33 1013.16
1006.53 1007.16 1007.77 1008.53 1009.24 1009.97 1010.72 1011.80 1012.24 1012.01 1011.60 1011.45 1011.72 1012.28 1012.72 1012.80 1012.97 1013.36 1013.80 1014.41 1014.84 1015.12 1015.24 1015.33 1015.57 1015.68 1015.97 1016.28 1016.45 1016.77 1017.04 1017.41 1017.60 1017.68 1017.84 1018.01 1018.04 1018.04 1018.12 1018.21 1018.12 1017.97 1017.84 1017.89 1017.92 1017.97 1018.09 1018.12 1018.12 1018.12 1017.97 1017.77 1017.65 1017.60 1017.41 1017.24 1016.92 1016.53 1016.24 1016.12 1015.72 1015.36 1015.04 1014.84 1014.72 1014.48 1014.36 1014.24 1013.97 1013.68 1013.41 1013.21 1013.01 1012.97
1006.89 1007.45 1007.89 1008.53 1009.33 1010.01 1010.77 1011.16 1011.65 1011.92 1011.89 1011.97 1012.21 1012.36 1012.36 1012.36 1012.65 1012.97 1013.36 1013.84 1014.28 1014.57 1014.65 1014.84 1015.01 1015.28 1015.60 1015.97 1016.48 1016.84 1017.04 1017.21 1017.24 1017.33 1017.57 1017.65 1017.60 1017.77 1017.92 1018.21 1018.16 1017.89 1017.72 1017.60 1017.57 1017.68 1017.77 1017.84 1017.89 1017.84 1017.89 1017.60 1017.41 1017.41 1017.24 1017.12 1016.89 1016.48 1016.09 1015.72 1015.57 1015.68 1014.97 1014.72 1014.45 1014.28 1014.12 1013.97 1013.72 1013.45 1013.16 1012.92 1012.65 1012.45
1006.97 1007.92 1008.60 1009.24 1010.01 1010.65 1011.12 1011.45 1011.84 1012.12 1012.09 1012.01 1012.04 1012.01 1012.04 1012.16 1012.41 1012.68 1013.04 1013.53 1013.80 1014.01 1014.09 1014.33 1014.72 1015.16 1015.65 1016.04 1016.21 1016.36 1016.60 1016.68 1016.97 1017.16 1017.36 1017.48 1017.57 1017.57 1017.84 1018.16 1018.04 1017.77 1017.65 1017.57 1017.48 1017.48 1017.60 1017.60 1017.65 1017.57 1017.57 1017.53 1017.48 1017.21 1017.01 1016.89 1016.72 1016.33 1015.97 1015.53 1015.28 1015.01 1014.77 1014.57 1014.33 1014.04 1013.89 1013.84 1013.72 1013.36 1013.01 1012.68 1012.41 1012.12
1006.89 1007.72 1008.45 1009.21 1009.92 1010.48 1011.12 1011.60 1011.80 1011.89 1012.04 1012.12 1011.92 1011.80 1011.92 1012.21 1012.45 1012.72 1013.12 1013.53 1013.77 1013.89 1014.12 1014.45 1014.77 1015.16 1015.45 1015.68 1015.80 1016.04 1016.28 1016.57 1016.80 1017.04 1017.33 1017.45 1017.48 1017.60 1017.77 1017.92 1017.77 1017.80 1017.77 1017.57 1017.48 1017.45 1017.36 1017.28 1017.33 1017.28 1017.21 1017.09 1017.09 1017.04 1017.01 1016.80 1016.33 1015.92 1015.65 1015.36 1015.16 1014.97 1014.60 1014.33 1014.12 1013.92 1013.77 1013.80 1013.57 1013.12 1012.68 1012.36 1012.04 1011.72
1006.16 1007.01 1007.84 1008.48 1008.92 1009.48 1010.28 1011.04 1011.45 1011.53 1011.77 1011.89 1011.92 1011.97 1012.01 1012.01 1012.24 1012.48 1012.77 1013.04 1013.33 1013.65 1013.89 1014.12 1014.45 1014.84 1015.04 1015.36 1015.57 1015.80 1016.01 1016.33 1016.60 1016.92 1017.12 1017.33 1017.36 1017.60 1017.65 1017.65 1017.60 1017.57 1017.65 1017.57 1017.45 1017.28 1017.21 1017.16 1017.04 1016.89 1016.68 1016.60 1016.48 1016.48 1016.53 1016.48 1016.21 1015.77 1015.48 1015.33 1015.16 1014.92 1014.48 1014.21 1013.97 1013.84 1013.77 1013.60 1013.36 1012.97 1012.45 1011.97 1011.57 1011.24
1005.48 1006.21 1006.60 1007.12 1007.68 1008.48 1009.45 1010.16 1010.60 1010.97 1011.33 1011.60 1011.68 1011.84 1011.92 1011.84 1011.97 1012.21 1012.45 1012.68 1012.97 1013.36 1013.65 1013.92 1014.12 1014.41 1014.68 1014.89 1015.16 1015.45 1015.68 1015.97 1016.33 1016.77 1016.92 1016.97 1017.24 1017.28 1017.24 1017.41 1017.41 1017.45 1017.41 1017.36 1017.24 1017.12 1017.16 1017.04 1016.84 1016.60 1016.41 1016.28 1016.09 1015.65 1015.53 1015.72 1015.84 1015.60 1015.41 1015.21 1014.97 1014.77 1014.48 1014.16 1013.92 1013.72 1013.60 1013.33 1013.09 1012.89 1012.24 1011.68 1011.16 1010.72
1004.72 1005.24 1005.89 1006.28 1006.60 1007.36 1008.41 1009.28 1009.89 1010.36 1010.84 1011.21 1011.28 1011.45 1011.68 1011.65 1011.68 1011.92 1012.16 1012.36 1012.65 1013.04 1013.41 1013.72 1014.01 1014.16 1014.33 1014.53 1014.77 1015.04 1015.33 1015.65 1015.92 1016.28 1016.60 1016.72 1016.80 1016.89 1016.97 1017.12 1017.24 1017.24 1017.21 1017.21 1017.09 1016.92 1016.92 1016.84 1016.68 1016.65 1016.60 1016.33 1016.12 1015.84 1015.28 1015.28 1015.48 1015.48 1015.53 1015.21 1014.84 1014.72 1014.45 1014.16 1013.97 1013.68 1013.36 1013.04 1012.84 1012.72 1012.21 1011.45 1010.80 1010.24
1004.45 1005.33 1005.80 1006.04 1006.28 1006.53 1007.09 1007.92 1008.84 1009.53 1010.09 1010.57 1010.72 1010.77 1011.01 1011.21 1011.33 1011.53 1011.68 1012.16 1012.45 1012.72 1012.97 1013.28 1013.57 1013.77 1014.01 1014.16 1014.48 1014.84 1015.12 1015.48 1015.68 1015.97 1016.16 1016.24 1016.45 1016.60 1016.80 1016.92 1017.01 1017.04 1017.09 1016.97 1016.89 1016.80 1016.72 1016.65 1016.53 1016.57 1016.60 1016.41 1016.28 1016.01 1015.45 1014.97 1015.28 1015.33 1015.28 1015.09 1014.84 1014.53 1014.36 1014.16 1013.89 1013.53 1013.09 1012.92 1012.65 1012.33 1011.92 1011.41 1010.65 1010.01
1004.65 1005.48 1006.01 1006.28 1006.53 1006.68 1007.01 1007.65 1008.28 1008.89 1009.45 1009.80 1009.97 1010.28 1010.36 1010.45 1010.80 1011.16 1011.57 1012.12 1012.41 1012.57 1012.89 1013.09 1013.16 1013.41 1013.57 1013.89 1014.33 1014.65 1014.89 1015.09 1015.33 1015.65 1015.80 1015.97 1016.21 1016.36 1016.53 1016.60 1016.60 1016.68 1016.77 1016.77 1016.72 1016.60 1016.45 1016.45 1016.36 1016.33 1016.41 1016.48 1016.33 1016.01 1015.57 1014.97 1014.92 1014.77 1014.80 1014.92 1014.68 1014.41 1014.21 1014.01 1013.68 1013.33 1012.97 1012.65 1012.41 1011.97 1011.68 1011.21 1010.48 1009.84
1003.80 1004.80 1005.77 1006.28 1006.41 1006.33 1006.77 1007.28 1007.68 1008.12 1008.60 1009.21 1009.57 1009.68 1009.84 1010.16 1010.53 1011.01 1011.48 1011.77 1012.01 1012.24 1012.53 1012.77 1012.89 1013.04 1013.28 1013.68 1013.97 1014.28 1014.65 1014.97 1015.28 1015.41 1015.48 1015.57 1015.80 1016.09 1016.21 1016.28 1016.36 1016.36 1016.57 1016.57 1016.41 1016.24 1016.16 1016.12 1016.01 1016.04 1016.16 1016.36 1016.36 1016.04 1015.84 1015.68 1015.24 1014.68 1014.36 1014.53 1014.45 1014.36 1014.01 1013.89 1013.65 1013.28 1012.97 1012.53 1012.04 1011.77 1011.36 1010.77 1010.16 1009.65
1003.53 1004.16 1005.16 1006.01 1006.36 1006.36 1006.57 1006.68 1007.04 1007.57 1008.28 1008.60 1008.80 1009.09 1009.48 1009.89 1010.28 1010.77 1011.16 1011.48 1011.77 1012.04 1012.12 1012.33 1012.53 1012.92 1013.21 1013.48 1013.80 1013.97 1014.33 1014.68 1014.89 1015.01 1015.12 1015.21 1015.45 1015.72 1015.89 1015.97 1016.16 1016.28 1016.45 1016.36 1016.24 1015.97 1015.92 1015.80 1015.77 1015.92 1016.04 1016.12 1016.04 1015.92 1015.80 1015.57 1015.09 1014.60 1014.24 1013.84 1014.01 1014.12 1013.84 1013.77 1013.65 1013.41 1012.92 1012.48 1012.21 1011.72 1011.01 1010.41 1009.84 1009.28
1002.97 1003.92 1004.68 1005.28 1005.89 1006.41 1006.68 1006.65 1006.72 1007.16 1007.65 1008.12 1008.57 1008.97 1009.28 1009.60 1010.01 1010.41 1010.68 1011.09 1011.45 1011.80 1011.97 1012.12 1012.41 1012.65 1012.89 1013.28 1013.57 1013.72 1014.16 1014.36 1014.53 1014.65 1014.80 1014.97 1015.24 1015.48 1015.68 1016.01 1016.04 1016.01 1016.16 1016.12 1016.04 1015.92 1015.72 1015.60 1015.77 1015.97 1016.09 1015.97 1015.80 1015.77 1015.65 1015.24 1014.65 1013.80 1013.53 1013.28 1013.45 1013.65 1013.65 1013.68 1013.57 1013.41 1013.04 1012.60 1012.24 1011.68 1011.01 1010.41 1009.80 1009.28
1001.57 1002.57 1003.53 1004.24 1004.92 1005.65 1006.01 1006.16 1006.28 1006.80 1007.41 1007.92 1008.41 1008.92 1009.28 1009.60 1009.89 1010.24 1010.68 1011.09 1011.28 1011.48 1011.60 1011.89 1012.12 1012.33 1012.65 1013.12 1013.41 1013.65 1013.80 1014.09 1014.24 1014.41 1014.57 1014.68 1014.89 1015.21 1015.60 1015.65 1015.57 1015.60 1015.80 1015.89 1015.80 1015.68 1015.53 1015.48 1015.45 1015.45 1015.36 1015.41 1015.48 1015.53 1015.09 1014.57 1014.21 1013.84 1013.57 1013.28 1012.92 1013.09 1013.33 1013.33 1013.21 1013.09 1012.92 1012.65 1012.33 1011.77 1011.09 1010.36 1010.04 1009.77
1001.84 1002.24 1003.01 1003.65 1004.33 1005.09 1005.48 1005.77 1006.16 1006.65 1007.24 1007.77 1008.28 1008.68 1009.09 1009.48 1009.97 1010.41 1010.45 1010.84 1011.09 1011.24 1011.33 1011.60 1011.80 1012.09 1012.48 1012.89 1013.16 1013.36 1013.53 1013.77 1013.92 1014.09 1014.24 1014.41 1014.53 1014.68 1014.84 1014.97 1015.12 1015.28 1015.48 1015.57 1015.53 1015.53 1015.41 1015.24 1015.12 1015.04 1015.01 1015.01 1015.01 1015.04 1014.89 1014.41 1014.09 1013.77 1013.45 1013.09 1012.92 1012.80 1012.68 1012.72 1012.68 1012.57 1012.41 1012.24 1012.12 1011.89 1011.57 1011.24 1011.01 1010.48
1002.16 1002.41 1002.84 1003.57 1004.33 1004.84 1005.21 1005.57 1006.09 1006.57 1007.12 1007.68 1008.16 1008.60 1008.97 1009.41 1009.80 1009.97 1010.09 1010.41 1010.68 1010.89 1011.04 1011.36 1011.65 1011.97 1012.36 1012.68 1012.97 1013.16 1013.28 1013.41 1013.60 1013.84 1014.01 1014.12 1014.21 1014.33 1014.41 1014.60 1014.89 1015.12 1015.24 1015.28 1015.33 1015.28 1015.16 1015.01 1014.80 1014.72 1014.77 1014.72 1014.60 1014.65 1014.48 1014.21 1013.84 1013.57 1013.36 1013.09 1012.84 1012.68 1012.53 1012.24 1012.04 1011.84 1011.60 1011.36 1011.24 1011.21 1011.12 1011.04 1010.84 1010.45
1002.12 1002.36 1002.77 1003.33 1003.92 1004.45 1004.97 1005.48 1006.01 1006.57 1007.09 1007.57 1008.09 1008.48 1008.89 1009.16 1009.36 1009.60 1009.84 1010.09 1010.33 1010.60 1010.92 1011.16 1011.48 1011.80 1012.09 1012.41 1012.72 1013.01 1013.12 1013.36 1013.48 1013.57 1013.68 1013.80 1013.92 1014.04 1014.21 1014.36 1014.65 1014.89 1015.01 1015.04 1015.16 1015.09 1015.01 1014.80 1014.57 1014.36 1014.36 1014.33 1014.24 1014.33 1014.24 1014.12 1013.89 1013.60 1013.21 1012.97 1012.72 1012.53 1012.41 1012.21 1011.97 1011.57 1011.21 1010.84 1010.60 1010.68 1010.65 1010.48 1010.16 1009.84
Thickness
5758 5756 5753 5750 5748 5747 5745 5743 5741 5739 5736 5733 5730 5727 5724 5718 5711 5707 5706 5707 5712 5716 5717 5715 5714 5714 5713 5711 5709 5707 5706 5705 5704 5703 5702 5700 5698 5696 5695 5693 5692 5690 5689 5688 5687 5686 5685 5684 5683 5682 5682 5681 5680 5679 5678 5678 5676 5676 5676 5675 5675 5675 5675 5674 5674 5674 5674 5674 5675 5675 5676 5676 5677 5678
5758 5755 5753 5750 5748 5747 5745 5743 5743 5740 5737 5735 5732 5730 5728 5723 5717 5711 5707 5707 5711 5714 5714 5715 5713 5711 5710 5708 5706 5705 5704 5702 5701 5700 5699 5697 5695 5694 5692 5691 5690 5689 5688 5686 5685 5683 5683 5681 5680 5680 5679 5679 5678 5677 5676 5675 5674 5673 5672 5672 5672 5672 5671 5671 5671 5671 5671 5671 5672 5672 5673 5673 5673 5674
5758 5755 5752 5749 5748 5747 5745 5743 5742 5740 5738 5735 5734 5731 5729 5725 5721 5717 5710 5706 5710 5713 5711 5711 5713 5710 5708 5707 5705 5704 5702 5700 5699 5698 5696 5694 5692 5690 5688 5688 5686 5685 5684 5683 5682 5680 5679 5678 5677 5676 5676 5675 5674 5673 5672 5672 5671 5670 5669 5669 5668 5668 5667 5667 5667 5668 5668 5668 5668 5669 5669 5670 5671 5671
5759 5756 5752 5750 5749 5747 5744 5743 5742 5740 5738 5736 5734 5732 5729 5726 5723 5720 5714 5707 5708 5713 5712 5710 5710 5710 5707 5706 5705 5703 5701 5698 5697 5695 5694 5691 5689 5687 5686 5684 5682 5681 5680 5679 5678 5677 5676 5675 5674 5673 5673 5671 5671 5670 5669 5667 5667 5666 5665 5665 5665 5664 5664 5664 5664 5664 5664 5664 5665 5665 5666 5667 5667 5668
5760 5756 5753 5751 5750 5748 5745 5742 5741 5739 5737 5735 5733 5731 5729 5726 5724 5721 5715 5709 5707 5711 5712 5711 5710 5709 5707 5704 5704 5702 5700 5698 5695 5693 5691 5689 5686 5684 5683 5681 5680 5677 5676 5675 5674 5674 5673 5672 5670 5670 5669 5668 5667 5666 5665 5664 5663 5662 5661 5661 5660 5660 5660 5660 5660 5660 5661 5661 5661 5662 5663 5663 5664 5665
5761 5757 5754 5752 5750 5748 5745 5743 5741 5739 5737 5735 5733 5730 5728 5726 5724 5722 5717 5712 5707 5707 5710 5711 5709 5708 5706 5703 5702 5701 5699 5697 5694 5692 5690 5687 5685 5682 5680 5679 5677 5675 5673 5673 5671 5670 5668 5667 5666 5665 5664 5663 5662 5661 5660 5659 5659 5658 5657 5657 5656 5655 5655 5655 5655 5656 5657 5657 5657 5658 5659 5659 5661 5661
5762 5758 5755 5753 5751 5749 5745 5743 5742 5740 5738 5736 5733 5731 5729 5726 5724 5722 5718 5714 5708 5705 5707 5708 5708 5706 5704 5702 5700 5699 5697 5695 5693 5691 5689 5686 5683 5680 5677 5676 5674 5672 5670 5670 5668 5666 5665 5663 5662 5660 5659 5658 5656 5656 5655 5654 5654 5653 5652 5652 5652 5651 5651 5650 5650 5650 5651 5652 5653 5654 5655 5656 5656 5658
5764 5761 5757 5755 5753 5750 5746 5743 5742 5741 5738 5737 5734 5731 5729 5727 5724 5722 5719 5715 5711 5706 5704 5705 5706 5705 5702 5701 5700 5697 5695 5694 5692 5689 5687 5684 5681 5678 5675 5673 5671 5668 5667 5666 5664 5663 5661 5659 5658 5656 5655 5653 5652 5651 5650 5649 5649 5648 5648 5647 5647 5647 5647 5646 5646 5646 5646 5647 5647 5648 5650 5651 5652 5653
5767 5763 5760 5758 5755 5751 5748 5745 5744 5742 5740 5738 5736 5733 5730 5727 5725 5723 5720 5716 5712 5708 5703 5703 5704 5703 5700 5698 5697 5695 5692 5690 5688 5687 5684 5681 5678 5675 5673 5670 5667 5663 5662 5662 5660 5658 5657 5654 5653 5651 5650 5648 5646 5645 5645 5644 5643 5643 5643 5642 5641 5642 5641 5641 5641 5641 5642 5642 5642 5643 5644 5645 5646 5647
5769 5766 5764 5761 5758 5755 5751 5748 5746 5744 5741 5739 5737 5734 5731 5729 5726 5723 5720 5716 5713 5708 5704 5703 5701 5700 5698 5696 5694 5692 5690 5686 5683 5681 5680 5678 5676 5672 5668 5665 5662 5660 5658 5658 5656 5654 5651 5649 5647 5645 5643 5641 5640 5639 5639 5638 5638 5637 5637 5637 5636 5636 5635 5635 5636 5636 5636 5636 5636 5637 5638 5639 5639 5641
5772 5770 5767 5766 5763 5759 5755 5752 5750 5747 5743 5740 5738 5736 5733 5730 5727 5723 5720 5717 5712 5708 5705 5702 5700 5699 5697 5693 5691 5690 5687 5684 5681 5678 5675 5673 5672 5670 5665 5661 5658 5655 5654 5653 5651 5649 5645 5642 5640 5638 5636 5635 5633 5633 5634 5634 5633 5632 5631 5631 5630 5629 5629 5629 5630 5630 5630 5630 5630 5631 5632 5632 5634 5634
5773 5772 5771 5770 5767 5764 5760 5757 5754 5751 5747 5743 5739 5737 5735 5731 5726 5724 5720 5716 5713 5709 5705 5702 5700 5698 5695 5692 5689 5687 5684 5680 5678 5677 5673 5669 5667 5665 5662 5658 5654 5651 5650 5649 5647 5644 5640 5637 5636 5633 5631 5630 5628 5628 5628 5628 5628 5627 5626 5625 5625 5624 5623 5622 5622 5623 5623 5624 5624 5625 5625 5626 5628 5629
5774 5773 5773 5773 5770 5766 5763 5760 5757 5754 5750 5745 5741 5737 5734 5730 5726 5723 5720 5716 5713 5709 5705 5702 5700 5697 5693 5690 5688 5684 5682 5679 5677 5676 5671 5666 5664 5661 5657 5655 5651 5648 5645 5644 5643 5639 5636 5633 5632 5630 5628 5627 5625 5624 5624 5623 5622 5622 5620 5619 5619 5618 5617 5617 5616 5616 5616 5617 5618 5619 5619 5621 5622 5623
5773 5774 5776 5774 5770 5766 5763 5759 5756 5753 5750 5746 5742 5738 5734 5730 5726 5723 5719 5716 5713 5708 5704 5701 5699 5695 5692 5691 5688 5684 5683 5680 5676 5673 5668 5663 5661 5658 5653 5650 5649 5646 5641 5640 5638 5634 5631 5629 5627 5626 5625 5624 5622 5621 5620 5618 5616 5615 5614 5613 5613 5612 5611 5611 5610 5610 5610 5611 5612 5612 5613 5614 5615 5616
5774 5775 5775 5773 5769 5765 5762 5759 5756 5752 5748 5745 5742 5739 5735 5731 5727 5723 5719 5715 5712 5708 5704 5702 5699 5695 5691 5690 5688 5685 5683 5680 5674 5670 5666 5661 5657 5653 5648 5645 5644 5643 5638 5635 5633 5631 5628 5625 5623 5623 5621 5620 5619 5617 5615 5613 5610 5609 5608 5607 5606 5606 5606 5605 5605 5605 5605 5605 5606 5606 5607 5608 5608 5610
5775 5775 5774 5771 5768 5765 5763 5760 5756 5752 5748 5745 5741 5738 5734 5730 5727 5725 5721 5716 5713 5709 5705 5701 5699 5695 5691 5689 5687 5684 5681 5677 5672 5669 5664 5658 5652 5648 5645 5641 5641 5639 5635 5631 5628 5627 5626 5623 5621 5620 5618 5617 5615 5612 5610 5607 5604 5603 5602 5601 5600 5600 5600 5600 5600 5600 5600 5600 5601 5601 5601 5601 5602 5604
5777 5775 5772 5769 5767 5765 5762 5759 5756 5752 5749 5745 5740 5735 5731 5728 5726 5724 5722 5718 5715 5711 5707 5701 5698 5696 5692 5687 5686 5684 5679 5674 5670 5665 5660 5655 5650 5645 5642 5639 5637 5636 5632 5628 5625 5623 5623 5621 5618 5616 5615 5613 5611 5608 5605 5601 5599 5598 5596 5595 5594 5593 5594 5594 5594 5594 5595 5595 5595 5596 5596 5596 5597 5598
5778 5776 5773 5769 5767 5765 5761 5757 5755 5752 5749 5744 5739 5733 5729 5727 5725 5722 5719 5716 5713 5710 5707 5701 5697 5695 5692 5688 5684 5682 5678 5672 5667 5662 5657 5652 5647 5643 5640 5637 5634 5632 5629 5626 5622 5619 5619 5619 5615 5612 5611 5609 5605 5603 5599 5597 5595 5593 5591 5589 5589 5588 5588 5588 5588 5589 5590 5590 5590 5591 5591 5592 5593 5594
5779 5777 5775 5771 5768 5764 5761 5758 5755 5751 5748 5744 5739 5733 5730 5727 5726 5723 5719 5715 5711 5709 5706 5702 5698 5695 5692 5688 5684 5681 5676 5671 5666 5661 5655 5650 5645 5640 5637 5634 5632 5630 5628 5624 5619 5615 5616 5615 5612 5609 5608 5606 5602 5599 5595 5592 5590 5588 5586 5584 5583 5583 5582 5582 5583 5584 5584 5585 5586 5586 5587 5588 5589 5590
5780 5778 5776 5772 5768 5764 5761 5758 5754 5751 5748 5743 5738 5734 5730 5728 5726 5723 5720 5715 5710 5707 5704 5701 5698 5694 5690 5686 5682 5678 5674 5668 5664 5659 5652 5646 5641 5636 5632 5630 5629 5628 5626 5623 5618 5613 5612 5612 5608 5605 5605 5601 5597 5595 5592 5589 5586 5583 5581 5580 5579 5578 5578 5578 5578 5578 5579 5580 5581 5582 5583 5584 5585 5587
5781 5779 5776 5773 5768 5765 5762 5758 5753 5749 5746 5742 5737 5733 5729 5726 5724 5721 5718 5712 5707 5703 5701 5697 5694 5691 5686 5681 5677 5673 5669 5664 5660 5654 5646 5643 5639 5633 5628 5627 5626 5625 5624 5622 5617 5611 5608 5608 5604 5601 5600 5597 5594 5592 5589 5586 5583 5580 5578 5577 5576 5576 5576 5575 5575 5575 5575 5576 5577 5578 5579 5580 5581 5583
5781 5779 5776 5772 5768 5765 5763 5758 5752 5748 5744 5740 5736 5732 5729 5724 5720 5718 5715 5709 5703 5699 5696 5692 5689 5685 5681 5677 5673 5669 5664 5660 5655 5649 5644 5641 5637 5631 5627 5625 5623 5621 5620 5619 5614 5608 5605 5604 5601 5598 5595 5593 5591 5589 5586 5582 5579 5578 5576 5576 5575 5574 5574 5573 5573 5573 5573 5573 5574 5574 5575 5576 5577 5579
5779 5778 5774 5771 5768 5766 5762 5757 5752 5748 5744 5741 5737 5733 5728 5722 5718 5716 5713 5707 5701 5697 5692 5689 5685 5681 5677 5673 5669 5665 5660 5656 5651 5647 5643 5640 5634 5628 5625 5623 5619 5616 5616 5615 5610 5604 5602 5600 5597 5594 5591 5589 5588 5587 5583 5579 5577 5575 5574 5575 5573 5573 5572 5572 5572 5572 5572 5572 5572 5572 5572 5572 5572 5574
5777 5775 5773 5770 5766 5764 5761 5757 5752 5748 5744 5741 5738 5732 5727 5721 5718 5716 5711 5705 5701 5697 5692 5688 5683 5678 5675 5670 5667 5663 5658 5653 5648 5644 5641 5637 5632 5625 5622 5620 5617 5614 5614 5614 5608 5601 5599 5597 5594 5591 5588 5584 5584 5584 5582 5578 5575 5573 5572 5573 5572 5572 5571 5571 5571 5571 5571 5570 5570 5570 5570 5570 5569 5571
5776 5773 5772 5771 5766 5762 5759 5756 5752 5748 5744 5741 5737 5733 5728 5723 5719 5715 5708 5703 5699 5695 5690 5685 5680 5676 5672 5669 5665 5662 5657 5653 5648 5642 5638 5634 5629 5625 5620 5618 5615 5613 5612 5610 5605 5599 5596 5593 5591 5589 5586 5582 5581 5581 5580 5577 5574 5572 5571 5571 5570 5569 5569 5569 5570 5570 5569 5569 5569 5569 5568 5568 5568 5568
5777 5774 5772 5770 5765 5761 5757 5754 5751 5748 5744 5739 5735 5731 5727 5722 5717 5712 5706 5701 5696 5692 5687 5682 5678 5674 5670 5666 5663 5660 5656 5652 5647 5641 5636 5631 5626 5623 5619 5616 5612 5609 5609 5607 5602 5597 5594 5591 5588 5586 5583 5580 5578 5577 5576 5575 5574 5572 5569 5568 5567 5566 5566 5567 5567 5568 5568 5568 5568 5568 5566 5566 5566 5566
5777 5774 5771 5767 5762 5756 5753 5750 5748 5746 5742 5737 5733 5729 5724 5718 5713 5709 5704 5699 5693 5689 5684 5679 5675 5672 5668 5664 5661 5656 5653 5649 5644 5639 5633 5628 5623 5620 5617 5614 5611 5608 5607 5604 5601 5596 5592 5588 5586 5583 5580 5577 5576 5573 5573 5572 5572 5571 5568 5566 5565 5564 5563 5564 5565 5564 5564 5564 5565 5565 5564 5565 5565 5565
5777 5773 5769 5765 5758 5751 5747 5744 5742 5741 5739 5736 5731 5725 5720 5715 5711 5706 5701 5695 5690 5685 5681 5677 5673 5670 5667 5663 5659 5654 5651 5647 5641 5635 5629 5625 5621 5617 5614 5612 5609 5607 5605 5602 5599 5595 5590 5587 5584 5582 5578 5575 5573 5570 5570 5569 5568 5567 5566 5565 5564 5562 5561 5561 5561 5560 5560 5560 5560 5561 5561 5563 5563 5563
5777 5773 5767 5762 5753 5747 5743 5737 5733 5733 5735 5733 5729 5723 5716 5712 5709 5704 5698 5693 5687 5682 5678 5675 5672 5669 5665 5662 5657 5653 5649 5643 5637 5631 5626 5622 5618 5615 5612 5610 5607 5605 5603 5600 5597 5593 5589 5586 5583 5580 5577 5574 5571 5568 5566 5565 5565 5564 5563 5562 5561 5560 5559 5557 5556 5556 5555 5555 5555 5556 5557 5558 5559 5559
5772 5767 5760 5754 5747 5742 5738 5731 5725 5726 5729 5729 5725 5719 5714 5711 5707 5702 5697 5691 5685 5681 5678 5675 5672 5669 5665 5659 5655 5650 5645 5640 5634 5629 5624 5620 5617 5614 5611 5607 5604 5604 5602 5600 5596 5592 5588 5584 5581 5578 5575 5573 5570 5567 5564 5562 5562 5561 5561 5560 5559 5558 5557 5555 5554 5552 5550 5550 5551 5551 5552 5553 5553 5554
5764 5757 5750 5745 5740 5734 5730 5725 5720 5719 5720 5721 5718 5715 5712 5710 5706 5700 5696 5690 5685 5681 5679 5675 5672 5668 5663 5657 5651 5646 5642 5637 5633 5627 5622 5619 5616 5613 5609 5604 5601 5601 5600 5598 5595 5591 5586 5583 5580 5577 5575 5572 5569 5565 5562 5560 5559 5559 5559 5558 5556 5554 5554 5553 5551 5549 5546 5545 5546 5547 5548 5549 5549 5550
5756 5747 5740 5736 5730 5724 5720 5716 5713 5712 5712 5712 5712 5711 5709 5707 5702 5698 5692 5687 5683 5680 5677 5674 5669 5664 5659 5654 5649 5645 5641 5636 5630 5625 5620 5617 5614 5611 5606 5601 5599 5598 5597 5595 5592 5589 5585 5582 5579 5576 5574 5571 5567 5564 5561 5559 5557 5556 5556 5556 5554 5552 5551 5549 5547 5546 5543 5540 5541 5543 5544 5545 5546 5547
5750 5740 5734 5729 5724 5719 5713 5709 5707 5706 5706 5706 5706 5706 5705 5702 5698 5693 5688 5683 5680 5677 5674 5670 5666 5661 5656 5652 5648 5643 5639 5633 5628 5623 5618 5614 5612 5608 5603 5600 5597 5596 5594 5591 5589 5587 5583 5581 5578 5576 5573 5571 5567 5563 5560 5557 5556 5556 5554 5553 5551 5549 5548 5546 5543 5542 5540 5537 5537 5539 5541 5543 5543 5544
5742 5735 5731 5727 5723 5719 5713 5707 5704 5702 5701 5701 5700 5700 5699 5697 5694 5689 5685 5682 5678 5674 5671 5667 5664 5659 5655 5651 5646 5642 5637 5632 5625 5619 5615 5612 5609 5606 5602 5599 5596 5594 5592 5590 5588 5585 5582 5579 5577 5575 5574 5571 5568 5564 5560 5557 5555 5554 5552 5549 5547 5546 5546 5544 5541 5539 5537 5535 5535 5537 5539 5541 5542 5543
5737 5732 5731 5729 5725 5720 5712 5706 5703 5700 5697 5696 5696 5695 5693 5693 5690 5686 5683 5680 5676 5671 5667 5664 5661 5657 5654 5650 5645 5640 5636 5630 5624 5618 5614 5611 5608 5605 5602 5598 5595 5593 5591 5589 5587 5585 5582 5579 5576 5574 5572 5570 5567 5566 5563 5558 5554 5552 5550 5548 5545 5544 5543 5542 5540 5537 5535 5535 5533 5534 5537 5541 5544 5544
5733 5728 5728 5727 5725 5721 5715 5709 5704 5700 5696 5693 5692 5691 5689 5688 5686 5683 5680 5678 5673 5669 5665 5661 5658 5655 5652 5649 5644 5639 5634 5629 5623 5617 5613 5611 5608 5604 5601 5597 5594 5592 5590 5588 5586 5584 5581 5578 5576 5572 5569 5566 5564 5562 5561 5558 5552 5549 5547 5546 5544 5542 5541 5540 5538 5536 5535 5535 5533 5533 5535 5540 5544 5545
5725 5721 5720 5720 5719 5718 5716 5711 5705 5700 5696 5693 5691 5690 5688 5686 5683 5681 5677 5674 5670 5666 5663 5659 5656 5653 5651 5646 5642 5637 5631 5626 5621 5617 5613 5610 5607 5604 5600 5597 5594 5591 5589 5587 5585 5583 5580 5578 5575 5571 5567 5563 5560 5558 5558 5557 5552 5547 5544 5543 5541 5541 5539 5537 5536 5535 5535 5534 5533 5532 5534 5537 5542 5544
5720 5717 5713 5710 5710 5712 5710 5707 5703 5700 5696 5692 5689 5688 5686 5685 5681 5677 5673 5669 5666 5662 5660 5656 5654 5652 5649 5645 5639 5634 5629 5624 5619 5615 5612 5610 5607 5603 5599 5596 5594 5591 5588 5586 5584 5583 5581 5578 5575 5572 5567 5561 5558 5555 5555 5554 5551 5548 5544 5541 5539 5538 5537 5535 5534 5534 5533 5533 5533 5533 5532 5534 5538 5541
5721 5717 5710 5704 5705 5708 5706 5703 5701 5699 5694 5690 5688 5686 5684 5681 5677 5673 5669 5665 5662 5660 5657 5654 5652 5650 5646 5642 5637 5632 5627 5622 5616 5614 5612 5609 5607 5603 5599 5596 5593 5590 5587 5584 5583 5582 5581 5578 5576 5573 5567 5561 5556 5554 5551 5550 5548 5547 5545 5541 5537 5535 5534 5532 5531 5531 5531 5531 5531 5532 5533 5535 5537 5539
5717 5712 5705 5700 5699 5700 5700 5699 5699 5697 5692 5688 5686 5684 5681 5678 5674 5670 5666 5663 5659 5656 5654 5652 5650 5647 5643 5639 5635 5630 5625 5619 5615 5613 5611 5609 5606 5602 5599 5596 5592 5589 5585 5583 5582 5581 5580 5579 5576 5571 5565 5560 5556 5552 5549 5547 5547 5548 5547 5544 5539 5534 5530 5528 5527 5526 5528 5528 5528 5529 5531 5534 5536 5536
5714 5708 5704 5701 5698 5695 5695 5696 5697 5694 5689 5685 5682 5679 5677 5674 5670 5666 5664 5660 5656 5653 5651 5649 5646 5644 5640 5636 5632 5628 5623 5618 5614 5612 5610 5608 5605 5601 5597 5594 5592 5589 5585 5582 5581 5580 5578 5577 5574 5569 5564 5560 5556 5552 5549 5548 5549 5550 5548 5545 5542 5536 5530 5526 5523 5521 5522 5523 5523 5525 5528 5529 5531 5531
5714 5711 5707 5704 5701 5696 5694 5694 5692 5689 5685 5681 5677 5674 5671 5669 5665 5662 5659 5655 5652 5650 5648 5646 5644 5641 5638 5633 5628 5625 5620 5616 5613 5611 5609 5607 5605 5601 5597 5594 5592 5589 5585 5582 5580 5579 5577 5575 5573 5570 5566 5562 5556 5552 5550 5550 5550 5549 5547 5545 5543 5538 5532 5528 5523 5520 5519 5518 5517 5517 5519 5520 5520 5520
5706 5706 5704 5701 5698 5694 5691 5690 5687 5683 5679 5676 5673 5670 5667 5663 5659 5657 5654 5651 5648 5646 5645 5644 5641 5638 5634 5630 5625 5622 5618 5615 5612 5609 5608 5606 5605 5602 5599 5596 5593 5589 5585 5582 5579 5577 5575 5574 5574 5571 5567 5563 5558 5554 5551 5550 5549 5548 5547 5544 5542 5539 5534 5530 5526 5522 5519 5517 5515 5513 5511 5509 5507 5506
5695 5698 5699 5696 5692 5687 5686 5684 5681 5677 5674 5671 5667 5665 5662 5658 5655 5653 5651 5649 5646 5644 5642 5640 5638 5634 5631 5627 5623 5619 5616 5613 5610 5608 5607 5605 5604 5602 5599 5596 5592 5588 5584 5581 5579 5576 5574 5574 5574 5571 5567 5564 5560 5555 5552 5550 5549 5547 5546 5543 5541 5539 5536 5534 5530 5526 5524 5522 5519 5516 5513 5508 5505 5503
5690 5692 5692 5690 5685 5682 5680 5678 5675 5671 5668 5666 5662 5659 5657 5654 5652 5650 5648 5646 5643 5640 5638 5636 5634 5631 5628 5624 5620 5617 5613 5610 5607 5606 5605 5604 5603 5601 5599 5595 5591 5587 5584 5581 5577 5575 5573 5572 5572 5571 5568 5564 5561 5557 5552 5549 5548 5546 5545 5543 5541 5538 5536 5533 5532 5530 5528 5526 5523 5520 5516 5513 5510 5507